Тайлакова

Россия / Ханты-Мансийский автономный округ - Югра     59°15′05″N   73°57′15″E
темп.,
°C
ветер,
м/с
пор.,
м/с
влажн.,
%
обл.,
%
осадки,
мм/ч
давл.,
гПа
погр.,
м
18 мая, вт
вт1823:00+13зсз249683 10.2 100780
02:00+12сз279712 0.0 1007215
05:00+12ссв3591100 0.4 1009442
08:00+10св3493100 0.2 1010515
11:00+10св3795100 4.4 1011484
14:00+12св467999 0.1 1013970
17:00+13с4765100 0.3 10141398
20:00+11ссв3864100 0.0 1016317
19 мая, ср
ср1923:00+9с2666100 0.0 1017150
02:00+5с3977100 0.0 1018221
05:00+5с25760 0.0 1019160
08:00+10с35434 0.0 10201135
11:00+13с3536100 0.0 10202403
14:00+13ссз473499 0.0 10202547
17:00+12ссв584370 0.0 10202236
20:00+7с38485 0.0 1022347
20 мая, чт
чт2023:00+3ссв286399 0.0 1024193
02:00+2ссв2361100 0.0 102461
05:00+4всв1155100 0.0 102496
08:00+6ююз1146100 0.1 1024527
11:00+7юз3353100 0.1 10231066
14:00+7юз347595 0.2 1022748
17:00+6ю2484100 0.3 1021474
20:00+6ю2588100 0.0 1021319
21 мая, пт
пт2123:00+6ю269199 0.0 1021253
02:00+6ююв2692100 0.0 1021243
05:00+7ю248897 0.0 1021234
08:00+11ююз237461 0.0 1022587
11:00+16юз326058 0.0 1021934
14:00+19юз34515 0.0 10201045
17:00+21зюз464846 0.0 10191028
20:00+16зюз397363 0.0 1019224
22 мая, сб
сб2223:00+14юз313842 0.0 1018278
02:00+15зюз414756 0.4 1018367
05:00+15з3137683 0.4 1018350
08:00+21зсз36568 0.0 1017405
11:00+27з473642 0.0 10171234
14:00+29з57275 0.0 10173021
17:00+28з46334 0.0 10172553
20:00+21юз22520 0.0 101727